User: anonymous   Login
Location: Unspecified
(0.0000°N, 0.0000°E)
Time: 00:17:01
(UTC+00:00)
Language:

ITOS 1 - Orbit

View from above orbital plane
View from above orbital plane
View from above satellite
View from above satellite

Ground track
Ground track

The orbit data is extracted from the following two-line orbital elements,

1  4320U 70008A   18265.15715631 -.00000052 +00000-0 -46721-4 0  9998
2  4320 101.7738 332.9752 0028643 027.8994 026.0842 12.52050266420299
Epoch (UTC): 22 September 2018 03:46:18
Eccentricity: 0.0028643
inclination: 101.7738°
perigee height: 1433 km
apogee height: 1478 km
right ascension of ascending node: 332.9752°
argument of perigee: 27.8994°
revolutions per day: 12.52050266
mean anomaly at epoch: 26.0842°
orbit number at epoch: 42029

The dashed part of the orbit path shows where the satellite is in the earth's shadow,  

DLR